Wind_Speed
12 6 6 9 7 7 7 8 8 5 5 6 5 4 5 4 4 4 5 5 4 6 4 6 6 5 11 12 11 20 21 17 20 22 23 26 28 29 28 29 28 27 27 26 23 21 20 19 18 17 16 14 13 12 11 12 12 12 12 12 11 11 10 10 9 9 8 7 7 7 6 5 5 5 6 7 7 7 8 8 9 9 9 9 9 10
10 8 8 7 6 8 8 8 9 7 6 3 3 4 3 4 4 6 5 4 3 4 2 5 8 4 9 10 12 20 17 15 19 20 24 27 25 27 29 29 29 28 26 25 24 21 19 19 19 18 17 15 14 12 11 10 10 10 10 10 9 8 8 8 8 8 7 7 7 7 6 5 5 6 7 8 8 8 8 8 8 8 7 8 8 10
8 7 6 7 6 8 7 8 10 9 9 5 4 4 3 4 3 6 6 3 2 3 1 5 7 1 2 6 9 14 16 17 18 16 20 28 27 25 27 29 29 28 26 25 24 21 19 19 19 19 17 15 14 13 11 10 9 9 9 8 7 7 7 7 7 7 6 6 5 6 6 6 7 7 8 8 7 7 6 7 7 7 8 8 9 10
7 5 7 8 7 9 6 7 10 8 7 5 5 4 3 4 2 3 5 4 2 3 3 7 6 3 2 4 3 3 6 7 11 13 10 17 28 29 27 29 28 29 29 26 24 23 21 20 19 18 17 15 14 13 12 11 10 9 8 7 7 7 7 7 7 6 6 6 5 6 7 7 7 7 7 6 5 7 8 8 9 9 9 10 11 11
4 4 10 10 8 9 7 6 9 7 5 5 5 5 3 3 4 3 3 3 3 4 5 8 6 4 2 2 1 5 7 8 7 13 6 2 16 27 28 28 28 29 30 28 27 25 22 21 19 18 17 16 15 13 12 12 11 10 9 8 8 8 7 7 7 7 7 7 7 7 8 7 7 7 8 7 7 9 10 10 10 11 11 12 12 13
4 4 12 12 8 10 8 6 8 8 5 5 5 7 6 5 5 3 3 4 5 4 1 5 4 3 3 1 3 4 6 6 7 10 11 2 7 21 28 27 27 27 29 29 28 27 24 23 22 20 19 17 16 15 13 12 11 10 10 9 8 7 7 7 7 7 8 7 7 8 8 8 8 9 9 9 9 10 10 11 11 12 12 13 13 14
4 5 8 10 10 10 9 7 7 9 6 4 5 9 8 6 5 2 2 3 3 2 4 2 5 3 3 3 4 6 7 10 7 7 15 14 11 19 25 25 27 28 29 30 27 27 26 25 24 22 19 18 16 15 13 12 10 10 9 8 7 7 7 7 7 7 8 8 8 8 8 9 9 9 9 9 9 10 11 12 13 13 13 14 15 15
6 8 6 8 10 9 10 8 7 9 7 3 5 10 9 6 6 4 1 0 2 3 5 2 4 3 2 5 6 9 10 10 11 10 14 17 17 19 19 20 27 29 31 33 30 28 27 25 24 21 18 16 14 12 11 10 9 9 9 9 9 9 9 9 9 9 9 9 9 8 9 9 9 9 9 10 10 11 12 13 14 15 15 16 17 17
7 10 7 8 10 9 9 6 7 10 6 4 6 10 8 8 7 5 4 3 1 0 5 4 3 3 3 5 6 9 11 10 12 12 11 18 24 23 21 22 27 29 33 35 33 31 28 24 22 19 17 15 13 12 11 10 10 9 9 10 9 9 9 9 10 10 9 9 10 10 10 9 10 10 10 11 11 12 13 14 15 17 18 19 19 19
4 12 12 8 7 7 6 5 8 10 5 4 7 8 5 6 6 6 5 3 2 1 6 8 6 4 3 4 8 9 9 11 12 9 9 21 28 25 25 27 27 30 33 33 32 31 28 24 21 18 15 14 13 12 11 10 9 9 9 9 8 7 8 9 10 10 9 10 10 11 12 12 12 13 13 14 15 17 17 17 17 17 19 20 21 20
3 10 15 9 6 5 6 6 8 11 7 5 7 6 4 3 3 3 2 3 3 3 8 10 9 6 3 4 7 6 6 12 13 8 8 18 24 23 26 28 27 30 32 30 30 29 28 26 22 18 14 14 14 12 10 10 9 7 6 6 7 7 8 8 10 11 11 11 12 13 13 14 14 15 17 19 19 19 19 19 19 18 18 19 20 19
7 6 8 6 8 8 7 6 7 10 9 5 6 4 3 0 1 3 2 2 4 7 8 9 9 5 4 5 6 4 5 12 13 11 11 14 19 23 25 26 27 29 31 30 29 29 28 26 23 18 14 14 13 10 8 8 7 6 6 6 8 9 10 10 12 13 14 14 14 14 15 16 17 18 20 20 20 20 19 19 19 19 18 18 16 16
7 6 3 3 10 13 8 5 5 7 8 6 5 6 5 2 1 2 2 1 5 6 5 7 9 4 4 4 7 9 10 13 13 12 16 19 22 25 25 26 28 29 31 30 27 27 27 25 23 19 16 14 11 9 8 6 6 8 8 10 11 12 12 14 15 17 18 18 17 17 18 19 20 20 20 20 20 19 18 18 18 18 17 15 14 14
6 6 6 5 7 13 11 7 6 6 8 9 6 7 6 5 5 6 5 2 4 5 4 3 8 4 3 3 5 11 11 14 15 13 17 22 24 26 26 27 28 27 30 31 27 26 25 24 23 21 17 14 11 9 9 10 10 10 11 12 13 13 14 13 13 14 15 16 17 18 20 21 21 21 21 21 20 18 16 16 16 17 16 14 14 14
8 6 8 8 4 10 12 8 7 5 5 7 4 6 5 4 6 6 5 2 3 3 4 1 5 4 2 2 3 8 12 16 20 18 18 20 22 26 26 26 27 26 28 29 27 25 24 23 23 19 16 13 10 7 8 9 8 9 9 9 9 8 7 5 5 6 7 9 12 14 16 17 18 19 19 19 18 16 15 14 15 15 14 14 14 13
10 7 4 8 6 7 10 7 7 7 4 5 4 5 5 5 5 3 4 4 4 3 2 1 1 1 2 1 2 10 15 17 21 22 21 20 21 25 25 24 27 26 26 28 26 25 23 21 19 16 14 11 7 7 7 5 4 3 3 4 4 4 4 3 3 2 2 3 5 7 9 10 12 13 14 14 14 13 13 13 14 14 14 14 14 13
8 5 2 5 7 8 9 8 9 8 5 3 5 6 5 4 6 2 2 2 4 4 1 1 1 0 1 1 3 11 13 13 15 18 21 21 22 24 22 23 25 26 26 26 24 22 20 18 16 14 13 10 8 9 8 6 5 4 5 7 7 7 6 5 4 3 2 0 2 3 4 5 6 8 9 10 10 11 12 13 14 15 16 17 16 15
5 3 4 5 7 10 10 8 8 10 9 5 6 7 3 4 3 1 2 1 3 4 2 2 3 4 3 2 3 8 10 7 8 12 18 20 21 21 20 22 24 25 26 24 22 21 18 17 17 15 13 11 9 9 9 8 8 8 8 9 9 8 6 5 4 4 2 2 2 2 2 3 4 5 7 8 9 10 11 13 14 15 16 17 17 17
3 2 5 7 8 7 8 6 5 8 11 7 6 6 7 4 5 3 3 2 2 3 1 2 4 5 3 3 7 10 9 7 9 12 14 16 18 19 20 22 24 25 25 24 24 22 20 19 18 16 14 12 12 12 11 10 9 8 9 10 10 8 6 5 5 4 3 4 4 4 3 3 4 5 6 7 8 9 9 10 12 13 14 15 16 17
1 1 4 6 8 6 5 5 4 7 9 7 5 6 6 5 6 5 3 3 4 4 1 2 4 4 3 4 10 15 15 14 14 14 12 14 18 21 22 24 25 26 26 27 26 23 22 20 18 17 15 15 15 14 11 10 9 10 12 12 10 7 5 4 3 3 4 4 5 5 4 3 3 2 3 4 5 6 6 7 9 10 11 13 14 16
1 2 3 3 4 6 5 6 8 8 7 6 5 6 6 4 3 4 2 2 4 4 3 3 4 4 2 4 10 15 17 16 16 15 12 15 21 23 25 26 27 27 27 26 25 24 23 20 18 18 17 16 17 14 12 11 12 14 15 13 9 6 3 1 1 3 4 5 6 5 3 2 1 2 3 3 4 4 5 5 6 8 9 11 12 14
1 3 2 1 2 6 6 7 8 9 8 7 5 5 7 6 5 4 4 1 3 4 4 5 4 4 3 3 8 11 12 13 16 16 14 17 23 25 27 29 29 29 28 26 25 25 23 21 20 19 18 18 18 16 15 13 15 17 16 13 10 7 4 2 1 3 5 7 6 4 1 1 3 4 5 5 5 5 5 6 7 8 9 10 10 11
3 3 2 1 3 6 8 6 6 9 10 8 7 6 4 3 5 6 6 3 3 3 2 3 2 3 4 1 6 10 11 16 20 20 18 20 24 26 28 31 31 29 28 27 26 25 25 24 22 20 19 20 19 18 17 16 17 16 14 11 9 6 4 2 1 3 5 7 6 3 1 3 5 6 6 6 6 6 7 8 9 10 11 11 11 12
5 2 1 2 3 4 6 5 3 7 9 7 7 6 5 4 4 5 5 4 4 3 3 4 1 3 2 1 8 12 14 18 22 23 23 22 24 27 28 29 31 30 28 27 27 27 27 24 22 21 21 21 19 19 19 18 16 15 12 10 8 5 3 1 2 4 6 7 6 3 4 6 7 7 7 7 7 8 9 10 10 11 12 12 13 13
5 2 1 1 3 4 4 3 1 4 7 6 5 6 8 8 6 4 3 4 3 4 6 6 3 3 2 5 10 14 14 15 18 25 28 27 25 25 26 28 30 30 29 29 29 29 27 24 23 22 22 21 19 19 19 17 16 14 12 10 7 4 2 2 4 5 6 6 5 5 8 9 8 8 8 8 9 9 10 10 11 11 12 12 13 14
6 3 3 3 2 2 2 3 3 5 5 4 6 9 10 11 10 5 3 4 4 4 5 6 4 2 5 9 11 13 13 12 16 23 29 30 29 26 26 28 29 29 31 32 31 29 27 25 24 23 22 21 20 19 18 17 16 14 12 10 6 3 1 3 4 4 5 4 5 9 10 10 9 8 8 9 9 10 9 10 10 11 11 12 13 13
3 2 5 6 6 6 5 5 4 4 6 6 8 11 8 8 9 6 5 4 5 5 3 2 6 9 9 10 12 13 14 13 14 20 25 29 30 28 28 29 29 31 33 32 31 30 29 27 25 24 23 22 20 19 18 17 16 13 11 8 5 2 1 1 2 2 4 5 8 10 11 10 9 9 9 9 9 9 9 10 10 11 12 12 13 13
4 2 4 5 5 6 5 6 8 3 7 8 8 10 8 7 9 8 5 5 7 8 2 4 10 14 11 11 14 15 16 15 15 20 25 27 29 29 29 29 30 32 33 32 32 31 30 28 26 24 23 21 21 20 19 17 15 12 9 6 4 3 2 2 1 3 6 8 10 11 11 10 9 9 9 9 10 10 10 11 11 12 13 13 14 14
5 3 3 3 1 4 4 6 8 4 3 4 4 5 7 9 11 9 6 8 9 8 6 10 16 16 14 17 19 18 17 18 20 24 27 28 29 30 30 30 31 33 33 33 32 31 29 27 25 23 22 21 21 21 19 16 13 10 7 6 4 4 4 4 4 6 8 10 11 11 10 9 10 10 10 10 11 11 11 11 12 12 13 14 15 15
5 2 1 5 2 5 6 7 6 2 4 6 6 4 1 6 10 8 5 7 6 2 8 18 18 9 9 14 15 16 20 23 25 27 29 30 31 32 32 31 31 32 34 34 32 30 28 26 24 23 23 22 22 20 18 15 12 9 8 7 7 6 7 6 6 8 9 9 10 9 9 9 10 10 11 11 12 11 12 12 12 13 14 15 16 16
6 0 1 6 3 5 5 6 4 5 7 7 6 7 7 3 5 6 6 6 5 5 7 16 12 3 4 10 14 20 27 27 26 26 28 29 32 33 31 30 30 31 32 33 33 31 29 27 25 24 23 22 21 19 17 14 12 11 10 10 10 10 9 9 9 10 10 9 9 9 9 10 11 11 12 12 13 13 13 13 13 14 15 16 17 18
7 2 2 5 2 5 4 4 4 4 9 8 6 8 8 4 3 4 4 4 7 11 13 12 8 4 6 12 16 21 25 26 25 26 27 29 32 34 32 30 31 31 32 33 33 31 28 26 25 24 23 22 20 18 16 14 13 12 13 13 13 13 12 12 12 12 11 10 10 9 10 11 11 12 13 13 14 14 14 14 14 15 16 17 19 19
7 5 2 4 2 4 4 4 7 1 6 3 3 4 5 3 1 3 4 4 8 14 13 8 7 8 12 16 17 17 19 22 25 28 29 30 31 32 33 33 33 33 33 33 32 30 27 25 24 23 23 22 20 17 15 14 14 15 15 15 15 15 14 14 14 14 13 12 11 11 11 12 12 13 14 14 14 14 14 15 15 16 18 18 19 19
7 8 4 3 3 4 6 6 4 2 5 4 4 3 4 2 2 4 6 6 5 6 4 3 8 13 15 17 18 17 18 22 27 30 33 36 35 32 32 34 34 35 34 33 30 28 26 25 24 23 24 22 20 18 16 15 16 17 17 16 16 15 15 16 16 17 16 15 14 14 13 13 13 14 14 13 13 13 14 15 16 17 18 18 19 20
6 8 4 2 2 2 4 3 2 4 5 4 4 3 2 5 8 9 10 7 4 4 6 9 13 15 15 16 20 22 23 26 29 31 33 36 38 37 35 34 34 35 34 31 29 27 26 26 26 26 25 22 20 19 19 19 19 19 18 17 16 15 16 17 18 19 19 18 17 15 14 14 14 14 14 14 14 14 14 15 16 17 18 18 19 20
7 6 4 2 2 1 2 1 3 4 3 2 2 3 1 6 8 9 9 7 6 4 9 12 13 14 16 21 26 27 28 29 26 25 28 31 34 39 39 36 35 34 33 31 29 27 26 26 27 27 25 23 22 22 21 21 20 20 19 18 17 17 18 19 20 21 20 20 19 17 15 14 14 14 15 15 14 14 15 15 15 16 17 18 19 20
8 7 5 3 1 2 2 1 1 1 2 1 3 4 4 5 5 5 5 2 5 1 11 15 14 15 18 23 28 32 33 28 18 13 22 29 32 37 38 37 35 33 31 29 27 26 26 26 27 26 24 24 24 23 22 22 20 20 20 19 18 19 19 20 21 22 22 22 21 19 17 16 16 16 16 16 17 17 16 16 16 16 16 17 18 20
4 5 7 5 1 2 4 2 2 2 2 4 6 6 4 4 6 5 5 2 4 1 14 19 15 16 19 22 29 33 29 20 8 8 21 30 33 36 35 34 33 31 30 29 28 27 28 27 26 25 24 25 25 23 22 21 20 20 20 20 20 20 20 20 21 22 22 23 22 21 20 18 18 19 19 19 20 19 18 17 16 16 15 16 18 19
6 3 5 5 2 3 4 3 3 2 3 6 8 6 4 6 8 6 4 1 2 4 18 22 18 19 23 27 33 31 20 11 6 12 25 32 34 36 36 33 33 32 30 29 28 28 29 27 26 25 25 25 24 23 22 21 19 19 20 21 20 20 20 20 21 21 22 22 22 22 22 20 20 21 21 21 21 20 19 18 16 15 15 15 16 18
7 4 3 5 3 3 3 3 2 3 3 4 4 5 9 10 8 7 2 4 7 13 22 26 24 26 28 31 33 24 10 8 14 22 33 37 36 36 36 35 35 33 31 29 27 26 26 25 25 26 25 24 23 23 22 20 18 19 21 21 21 20 20 20 20 20 21 21 22 22 23 22 23 23 23 23 23 22 20 19 17 16 15 15 16 16
4 3 1 4 3 3 3 2 1 3 4 3 3 9 14 9 5 4 4 7 16 22 25 29 30 31 33 32 26 12 4 12 28 38 40 40 38 37 36 35 33 31 30 29 27 26 26 25 25 25 23 22 22 23 22 19 18 20 21 22 22 21 20 20 20 20 20 21 22 22 23 23 25 26 26 26 25 24 22 20 19 18 17 17 17 17
3 1 2 3 3 3 3 2 1 3 4 3 5 11 14 7 2 3 4 14 30 30 26 29 31 32 34 30 21 16 19 28 39 43 41 41 41 39 36 33 31 30 29 28 27 26 26 26 24 24 23 23 23 22 20 18 19 21 23 23 23 22 21 20 20 20 20 20 21 22 23 24 25 26 28 28 28 27 26 24 22 20 20 20 20 20
3 3 2 1 2 3 3 3 3 2 4 8 12 9 7 3 4 6 10 20 34 35 29 30 31 31 32 28 24 28 37 41 42 41 41 42 41 39 36 34 33 32 32 31 29 28 27 25 24 24 24 23 23 21 19 18 21 24 24 23 23 22 21 21 20 20 20 20 21 22 23 24 24 26 27 28 30 30 29 27 25 24 24 24 24 24
2 2 3 2 2 3 2 2 3 3 3 7 9 5 4 4 6 18 23 22 29 35 34 31 30 31 32 31 34 39 43 43 42 41 42 42 40 38 37 35 34 34 34 33 31 28 27 27 26 25 24 23 22 21 20 21 24 26 25 23 22 21 20 20 20 20 20 20 20 21 23 24 25 25 25 27 29 30 30 28 27 26 26 26 27 27
1 2 4 3 1 3 3 3 3 3 3 3 3 2 5 7 10 23 32 31 31 36 37 34 32 32 33 36 41 43 43 43 43 42 43 42 40 39 37 36 36 35 34 33 31 28 28 29 28 27 26 24 23 23 22 23 25 26 24 23 22 20 19 19 19 19 19 19 19 20 22 24 25 24 24 25 27 29 30 29 27 27 27 28 29 30
0 0 3 4 2 2 2 3 3 5 7 6 4 3 8 13 15 21 31 34 35 38 38 37 36 35 38 42 44 43 42 44 44 42 42 42 41 40 38 36 35 34 33 33 31 29 29 31 30 30 29 27 26 24 23 23 24 24 24 23 20 19 18 17 17 17 18 19 19 19 21 23 24 24 23 23 25 28 30 29 28 27 28 28 30 31
2 1 3 4 3 2 1 4 4 5 7 9 10 9 10 14 17 22 27 32 35 37 38 38 38 38 40 43 45 44 43 44 45 43 42 41 41 41 40 38 36 34 33 33 31 29 30 32 32 32 31 29 28 26 25 24 24 23 22 21 19 17 16 16 16 16 17 18 18 18 19 21 22 23 22 22 24 27 29 29 28 28 28 28 30 31
1 2 3 3 3 3 1 1 5 9 9 8 10 12 14 15 18 22 27 31 34 36 36 37 39 41 41 42 46 47 45 44 45 44 42 42 42 41 40 38 37 34 33 33 32 30 30 31 31 31 30 29 28 27 26 25 23 21 19 18 17 16 16 16 15 15 16 17 18 18 18 19 21 22 22 21 22 24 27 29 28 28 28 28 29 31
0 2 3 3 4 4 2 3 7 10 8 6 8 12 15 19 22 25 28 31 34 36 36 37 38 40 41 42 45 47 45 43 44 45 44 42 42 42 41 39 36 35 34 33 32 30 30 29 29 28 28 27 26 26 25 24 21 19 18 17 16 15 16 16 15 14 15 16 17 18 18 18 19 21 22 22 21 22 25 27 28 28 28 28 28 29
2 3 3 4 4 2 2 6 7 5 3 3 9 14 16 19 24 29 32 33 35 37 39 39 38 38 40 42 45 47 46 43 42 43 43 42 42 42 41 39 37 35 34 32 31 30 29 28 27 26 25 24 24 24 24 23 22 20 18 17 16 15 16 16 15 14 15 15 16 17 17 18 19 20 21 22 22 21 22 24 26 27 27 27 28 28
1 4 4 5 3 3 8 12 10 6 6 9 14 17 18 20 25 30 32 34 36 38 40 41 40 40 41 42 43 45 47 45 43 41 41 41 41 40 39 38 37 35 34 32 31 30 29 28 27 26 25 24 23 22 22 21 21 20 18 16 14 14 15 15 15 15 15 14 14 15 16 18 18 19 20 21 21 21 21 21 22 24 25 26 26 27
Wind_Direction
173 180 206 203 197 178 174 168 170 185 163 150 162 179 178 189 247 250 255 262 149 138 212 170 145 161 166 173 163 159 167 169 163 156 151 150 151 156 157 156 156 155 157 159 157 155 153 152 151 150 148 147 148 148 152 154 156 166 172 175 181 184 186 189 190 196 203 215 231 239 246 249 261 274 277 279 280 281 286 286 287 289 290 294 296 299
174 205 220 193 168 161 162 155 160 196 214 184 156 189 210 195 238 260 252 272 140 147 242 130 126 170 176 175 162 154 165 180 174 161 153 152 151 156 156 152 152 153 156 155 153 154 152 150 150 147 145 146 146 147 151 152 156 164 168 172 178 180 185 192 196 203 213 226 237 241 248 258 273 287 288 289 291 293 292 289 286 284 287 293 298 304
195 218 189 161 156 146 147 157 162 187 210 217 195 174 226 226 245 277 283 333 103 160 260 122 120 282 219 168 161 162 171 178 178 167 153 152 153 155 153 149 149 150 151 153 153 153 153 150 146 143 143 147 148 147 149 150 154 161 166 170 174 181 187 195 203 208 221 234 243 253 263 270 276 279 279 282 287 286 282 280 281 282 289 297 303 309
204 212 162 153 152 143 151 170 166 185 204 200 193 170 216 233 181 259 288 339 72 134 141 119 99 2 11 104 113 118 132 141 160 164 150 146 151 153 151 148 150 151 152 154 153 152 151 146 142 141 142 145 146 146 148 151 154 158 166 172 176 186 192 196 202 207 220 230 242 256 258 262 268 266 264 265 269 275 278 281 284 290 297 301 304 307
218 196 158 150 154 158 165 176 171 184 209 207 193 174 186 204 190 217 284 328 18 59 120 106 66 346 2 110 108 69 77 50 85 139 130 93 146 147 147 148 150 151 152 151 149 149 147 144 144 144 145 146 146 148 150 151 154 157 163 169 178 192 202 206 213 219 229 233 234 242 246 252 259 258 258 258 262 270 277 283 290 296 299 300 301 302
251 212 160 153 173 176 173 188 184 176 195 235 205 176 180 174 187 241 339 16 39 10 254 118 87 304 314 242 177 124 119 85 68 114 125 160 171 147 147 150 149 149 151 150 149 149 148 146 145 144 145 147 146 148 152 153 158 167 172 177 184 199 213 220 230 235 242 246 242 242 245 249 254 258 264 268 271 274 279 287 295 299 300 300 303 305
219 218 168 166 178 179 192 205 193 171 167 237 203 170 181 166 156 197 2 43 101 253 276 143 149 229 288 255 188 162 141 130 139 137 140 167 184 155 151 152 149 149 149 149 150 149 148 148 146 145 146 149 148 147 153 160 168 181 189 195 202 213 226 234 244 251 256 260 259 259 256 256 261 267 273 278 285 290 294 297 299 301 303 304 304 305
171 189 193 186 177 181 206 206 187 166 152 232 194 157 168 165 155 178 185 187 193 238 308 345 139 152 216 221 192 166 148 140 163 163 154 168 167 156 158 155 152 150 148 149 151 150 150 150 150 150 149 154 157 155 164 174 178 193 202 208 214 221 229 235 243 252 259 262 263 269 270 272 278 283 286 288 292 297 299 300 300 301 303 303 303 301
153 180 202 187 185 200 202 178 158 154 154 222 167 143 164 172 164 178 195 223 215 20 304 288 152 141 229 199 177 171 160 158 171 168 162 163 162 163 162 156 152 149 147 149 149 149 152 153 153 153 153 159 164 166 178 185 190 203 210 213 216 219 228 236 242 244 248 255 258 264 269 274 278 283 289 291 290 290 291 294 298 300 302 302 301 298
162 184 193 183 199 208 169 147 153 153 175 196 133 117 147 170 169 175 189 198 108 117 245 238 182 160 256 201 180 186 174 168 169 171 169 161 164 165 156 152 151 146 146 148 147 148 152 152 152 152 153 161 168 171 183 192 199 208 211 218 223 228 239 249 255 254 249 250 257 261 265 270 274 277 279 278 278 279 283 288 293 297 301 302 298 293
265 188 191 194 203 179 151 166 159 156 175 160 119 91 94 144 152 145 156 113 107 251 237 217 192 175 216 211 190 194 173 167 162 159 166 157 157 154 147 149 148 144 145 146 145 147 148 148 148 149 150 157 165 172 184 191 199 211 221 230 234 240 249 256 264 269 265 260 264 267 270 275 279 279 276 277 279 281 285 289 290 294 298 300 296 292
274 217 198 196 182 165 164 188 161 155 175 158 123 115 105 96 46 64 26 79 169 245 242 202 185 179 214 216 196 186 157 166 165 161 160 150 146 145 143 144 145 144 146 146 144 144 146 146 146 152 157 155 159 168 180 190 203 227 254 263 260 262 267 270 271 274 273 270 272 274 275 278 280 280 279 282 286 288 290 292 293 295 297 298 298 297
238 247 270 209 187 180 171 182 163 156 177 175 138 138 155 179 151 177 212 193 210 240 251 186 163 171 253 241 193 179 169 169 166 158 153 146 142 142 142 143 143 143 146 148 146 143 147 148 148 156 160 160 171 183 196 218 228 238 254 261 264 270 274 276 273 271 270 269 269 270 270 272 275 278 281 284 288 291 294 295 295 296 298 299 301 303
216 266 264 231 198 185 178 177 177 174 180 183 169 155 168 167 167 199 204 216 239 252 303 170 159 181 279 297 208 181 165 153 146 145 147 144 142 142 141 142 140 138 142 148 149 146 149 151 151 156 159 165 181 196 217 234 237 240 248 255 263 267 268 270 269 267 267 268 268 268 269 272 274 276 279 282 287 292 294 292 290 293 297 301 303 304
189 244 233 210 200 176 184 191 170 144 159 183 161 130 160 177 172 196 196 187 216 239 339 36 161 195 194 310 260 155 129 125 136 146 145 138 138 137 136 137 136 134 138 145 150 149 149 151 150 153 157 162 175 201 224 227 228 238 248 258 261 253 248 249 248 253 255 258 263 265 268 271 273 276 279 282 285 287 288 286 285 289 294 298 299 299
191 233 219 190 207 181 183 189 148 124 153 184 128 127 192 194 149 160 181 164 151 134 15 354 184 254 170 18 58 126 121 119 131 138 136 134 135 134 133 134 135 134 137 142 145 144 144 146 145 148 152 156 172 191 192 178 181 210 212 212 195 163 145 132 138 162 197 229 247 257 264 268 272 277 280 282 282 280 279 281 284 287 290 292 293 293
183 238 304 172 212 211 187 172 160 164 178 167 158 185 210 154 113 110 187 136 102 131 187 272 196 328 148 91 97 125 127 127 130 131 133 137 137 135 134 135 135 136 138 139 140 139 140 140 139 143 147 151 166 167 156 143 140 146 149 147 136 120 115 114 107 99 97 264 254 252 260 268 272 275 278 280 281 279 278 278 280 283 284 286 289 290
160 219 266 176 199 227 204 178 183 180 157 141 193 195 130 94 115 117 143 63 74 148 220 289 199 184 174 179 135 119 117 124 125 124 132 136 136 134 135 137 138 137 137 136 136 136 135 134 135 137 138 141 150 151 145 143 143 148 150 138 122 117 118 103 73 56 37 356 333 320 303 286 281 279 280 280 280 281 280 277 277 279 282 283 285 287
154 191 252 197 184 217 199 175 203 196 176 170 181 159 128 156 211 198 164 182 141 144 213 272 215 202 198 188 155 133 126 129 126 127 133 137 138 137 136 138 138 136 136 137 136 134 132 132 133 135 133 131 132 132 136 143 143 143 141 133 130 130 116 85 61 43 21 5 350 340 328 304 294 291 289 284 282 283 282 280 279 280 282 284 285 286
145 122 268 219 180 178 172 171 200 208 201 185 145 146 159 178 201 200 182 162 144 142 166 196 207 225 231 189 165 156 156 155 148 144 142 142 142 139 137 138 138 139 140 139 138 136 135 135 134 133 131 128 128 129 134 138 135 137 141 143 146 138 108 81 58 23 2 358 348 335 319 305 302 307 307 299 292 292 289 286 283 283 286 287 288 288
86 160 263 270 179 164 182 206 200 193 195 182 152 171 191 178 167 185 174 109 129 149 160 167 199 241 232 180 175 168 163 160 153 146 141 142 142 139 139 140 141 143 142 141 139 138 138 137 133 131 129 128 130 137 143 138 133 143 150 151 153 146 131 137 2 341 332 335 334 326 312 303 2 20 351 335 321 316 313 308 302 299 300 297 295 293
114 174 214 308 173 186 218 222 196 182 179 174 172 191 199 178 144 171 209 196 111 137 161 158 181 249 258 184 170 165 159 154 146 139 136 140 141 140 142 143 144 145 143 143 141 139 139 138 134 132 131 132 137 142 145 140 140 150 153 150 153 155 155 175 295 317 322 328 330 329 327 87 62 37 17 10 3 357 352 346 343 337 331 325 319 314
154 145 162 240 212 213 239 248 208 187 168 163 189 198 185 156 138 164 202 201 96 97 108 108 145 256 290 233 150 151 151 147 143 138 133 136 141 143 144 146 147 146 145 145 144 141 140 140 138 136 136 140 143 142 142 141 144 150 153 152 158 159 154 164 301 320 325 328 328 335 81 81 54 41 32 27 23 17 12 7 3 357 352 349 346 342
176 167 189 276 298 289 278 285 244 188 158 159 199 186 160 186 177 161 180 164 125 137 115 90 172 255 293 124 132 134 138 140 141 138 133 134 141 146 149 149 147 145 145 144 143 142 141 141 139 139 141 144 145 143 143 144 146 150 153 155 158 153 142 129 337 329 328 331 336 9 82 75 58 47 37 32 30 25 21 15 10 4 1 360 357 355
192 199 125 92 338 338 330 334 325 182 173 175 189 176 177 188 171 127 125 117 132 191 162 139 190 236 164 135 131 132 134 133 137 139 137 138 144 149 150 148 145 144 142 141 142 142 142 142 140 141 145 148 146 144 143 144 148 152 151 150 147 137 110 352 328 325 332 344 12 63 78 73 64 52 42 35 32 29 25 19 15 11 8 6 3 1
177 178 142 144 176 181 186 221 208 180 190 189 171 178 182 175 166 150 129 135 176 200 151 143 180 173 131 135 135 139 139 132 135 141 142 143 147 149 146 145 146 144 139 140 142 143 143 143 143 145 148 149 148 146 144 146 152 152 148 141 130 118 8 318 311 324 347 16 61 78 75 70 63 51 41 34 28 26 23 18 15 12 10 10 7 4
143 148 150 147 172 190 195 229 245 172 178 193 183 182 176 161 153 130 122 170 182 151 127 201 165 140 143 150 147 147 146 140 142 146 146 147 147 146 144 144 146 142 140 141 143 144 144 143 144 147 147 146 146 147 148 151 153 149 143 132 121 135 247 272 301 348 32 63 77 77 71 65 58 47 38 30 24 20 16 13 10 8 8 8 5 2
98 156 173 140 170 213 224 257 288 267 187 185 178 174 167 149 136 125 148 187 157 137 169 233 161 150 161 165 157 157 154 149 151 153 151 147 144 143 142 143 142 140 141 143 143 144 144 143 146 147 145 145 148 150 152 150 147 142 136 128 134 159 162 144 111 76 77 80 80 76 71 64 55 45 36 30 25 19 14 10 6 4 3 1 359 358
105 153 181 117 161 267 280 285 294 291 151 118 112 150 160 159 153 152 177 178 159 156 175 179 171 168 170 168 165 164 157 150 149 150 147 142 139 140 140 140 141 141 143 144 144 145 144 144 147 146 145 149 151 151 149 144 141 140 135 131 135 137 132 128 114 98 91 88 83 76 68 58 48 40 34 30 26 22 18 14 11 9 6 3 3 3
112 126 130 100 32 307 310 309 294 223 115 69 45 37 74 170 163 151 149 152 144 147 165 164 167 170 166 166 161 148 141 138 139 141 142 140 140 141 141 141 142 143 145 145 144 145 146 147 148 147 147 149 149 148 146 144 141 135 124 118 119 122 122 119 109 101 96 89 81 70 60 52 45 40 35 31 30 29 27 24 21 17 14 13 12 11
123 43 20 84 47 297 311 333 287 180 122 87 54 25 17 47 120 115 118 122 87 52 131 146 140 102 119 138 133 134 137 136 138 142 143 143 143 143 142 143 143 143 144 144 144 145 147 150 148 145 144 146 148 149 147 143 135 123 114 113 115 115 114 110 104 100 94 87 80 69 60 55 50 45 41 38 38 37 34 31 27 23 20 19 18 17
120 77 12 79 75 273 305 341 268 175 103 78 43 16 10 24 94 114 126 140 132 122 120 126 133 148 146 132 129 137 141 141 144 147 146 145 147 146 144 143 143 144 144 145 146 147 149 149 145 142 144 148 150 149 144 136 126 116 114 115 113 111 108 103 98 94 92 89 83 74 65 59 54 50 48 45 43 40 38 34 31 28 25 23 22 21
127 117 101 117 146 252 255 276 276 202 107 73 353 350 335 339 69 102 87 100 136 135 136 156 172 158 145 139 138 144 149 149 150 151 149 147 147 147 147 146 145 145 146 147 148 149 148 146 143 144 148 149 147 142 135 130 122 118 119 117 114 111 105 99 94 93 93 92 84 77 70 63 59 56 52 48 45 43 41 38 35 32 29 27 25 23
133 130 127 146 162 236 249 267 299 131 161 238 294 280 249 237 109 97 90 92 115 122 117 129 136 139 145 149 149 150 151 150 150 152 152 152 152 151 149 147 148 148 149 150 150 150 148 145 145 148 147 144 140 134 130 128 124 122 121 115 111 107 100 95 93 91 90 88 83 78 74 67 62 59 54 51 49 45 44 41 38 35 32 28 26 25
132 128 116 109 138 217 271 278 173 176 213 260 295 282 194 137 114 89 69 48 41 82 97 109 127 141 145 141 138 137 138 143 147 152 156 157 156 153 149 149 151 151 150 149 149 150 151 150 148 148 145 140 137 134 133 131 127 122 116 110 106 103 98 95 92 89 87 86 82 78 74 68 63 59 56 54 51 49 47 45 41 38 34 30 29 28
136 133 122 96 117 170 330 2 169 206 269 283 262 272 171 128 118 95 68 23 1 89 125 126 129 133 129 128 130 130 132 133 135 144 155 159 156 154 153 152 152 150 148 148 151 153 154 153 150 148 144 139 137 137 135 132 127 118 111 108 107 103 100 95 90 86 84 83 81 77 72 68 64 61 59 56 55 53 51 49 45 43 38 34 33 32
140 139 127 99 70 150 128 47 47 352 323 282 235 235 202 165 159 141 111 41 335 69 133 130 128 130 128 128 129 129 129 125 112 123 150 155 155 156 155 153 151 149 148 150 153 154 154 153 150 147 143 139 139 139 135 130 125 116 111 111 110 105 101 94 88 84 82 80 78 75 72 69 65 64 61 58 57 55 53 51 49 46 42 38 37 35
125 151 146 144 190 135 120 75 41 40 295 243 222 224 225 179 157 136 110 95 319 193 144 139 135 137 135 132 132 131 129 124 112 140 152 154 155 155 152 151 152 151 149 149 150 151 151 152 149 146 143 141 140 138 135 131 126 118 113 114 111 104 99 93 87 83 80 78 76 73 72 71 68 66 63 60 58 57 54 53 50 48 45 42 40 40
59 66 121 124 147 146 117 116 149 189 247 229 214 212 207 179 155 116 85 140 270 173 151 145 141 146 147 144 144 142 138 140 160 164 156 154 156 155 153 151 151 149 148 148 149 149 150 150 148 145 144 143 141 139 138 135 129 121 116 115 111 103 99 95 88 83 80 78 75 72 71 72 71 69 66 63 62 60 58 57 54 51 49 46 45 44
55 28 71 106 136 154 113 109 179 231 246 226 213 185 181 180 147 104 103 215 184 169 162 154 150 154 153 151 154 155 158 167 163 159 157 155 154 155 154 151 150 149 149 149 150 149 150 151 151 148 147 145 142 142 142 139 131 122 117 115 110 103 101 99 92 88 84 80 76 72 71 71 71 69 66 64 63 62 61 60 58 55 53 51 49 47
60 18 88 123 127 125 109 111 219 267 249 233 203 173 171 165 117 116 225 193 159 162 167 160 155 156 154 157 161 153 95 141 150 151 154 154 151 151 150 149 150 150 150 150 151 150 150 151 152 150 148 147 146 147 147 142 131 122 118 115 110 105 104 102 98 93 88 83 79 74 71 71 69 67 66 64 63 62 61 60 60 58 56 54 53 51
122 69 77 97 107 120 118 113 87 285 253 174 129 152 156 146 160 220 202 155 151 155 164 161 157 156 155 157 155 131 119 136 145 147 151 153 150 148 149 149 148 148 149 150 151 151 149 147 147 147 147 149 151 151 149 143 131 124 121 116 109 104 104 104 101 96 91 86 81 75 72 70 68 67 66 63 60 59 57 58 60 60 58 55 53 51
146 121 98 125 145 115 63 72 110 249 222 142 121 135 157 175 200 159 128 141 150 152 156 158 158 158 155 148 140 134 135 140 145 147 150 151 150 149 150 151 149 147 147 147 148 149 146 142 143 146 148 150 152 152 150 143 132 126 122 116 109 106 105 104 101 96 92 88 83 77 72 69 68 67 65 62 58 56 54 55 57 58 57 54 52 49
139 129 153 207 192 123 105 174 187 267 246 156 137 150 187 207 167 143 134 139 149 151 153 157 159 160 156 145 138 139 140 142 146 149 149 149 149 150 150 151 149 147 145 144 144 142 137 135 138 143 146 149 151 150 148 140 132 127 123 118 112 110 108 106 100 95 91 88 84 79 74 69 67 66 64 62 58 55 54 54 54 54 54 52 51 50
145 161 160 157 155 147 160 213 232 337 1 151 174 191 162 162 162 152 147 148 152 155 157 158 158 159 155 147 142 141 143 145 148 150 149 149 150 151 151 151 151 148 146 145 143 138 133 133 135 138 141 144 145 145 143 138 132 128 125 121 116 113 112 109 102 95 91 87 83 80 75 70 67 65 63 62 59 56 55 53 52 52 52 50 49 49
12 107 119 108 134 157 69 27 20 26 40 86 123 144 149 152 159 159 155 153 156 159 160 160 158 156 153 151 147 144 146 148 149 149 150 150 150 152 151 151 152 151 150 149 146 140 135 134 135 135 136 137 139 139 138 136 132 129 126 124 120 116 115 114 107 97 91 87 83 79 75 70 67 64 63 62 61 58 56 54 53 53 52 50 49 48
302 342 81 90 125 152 32 1 14 40 58 88 109 126 141 148 157 161 158 156 157 158 159 160 157 154 153 153 150 147 148 150 149 149 150 150 151 152 151 151 153 154 154 154 151 145 139 138 138 137 134 133 134 135 135 135 133 130 128 126 122 119 119 120 114 102 92 87 82 78 75 72 68 64 63 63 62 60 58 56 54 54 54 52 51 49
234 136 106 85 86 102 112 33 73 77 78 93 114 131 140 145 153 156 155 155 156 156 157 158 157 155 154 153 151 149 149 151 151 150 151 152 152 152 152 152 154 155 156 156 154 149 144 142 142 140 136 133 132 132 133 135 136 136 134 130 126 124 125 126 121 108 97 89 82 78 76 75 72 67 63 63 62 61 59 57 55 54 54 54 52 51
186 129 127 107 97 88 92 130 110 85 66 76 115 133 143 149 151 151 152 154 154 153 152 153 155 156 155 153 152 151 150 152 154 152 152 154 156 156 155 155 156 156 156 156 154 151 148 146 145 143 140 137 135 134 134 136 140 141 139 134 129 127 131 133 128 115 103 93 84 80 79 77 74 70 65 62 61 61 60 58 57 55 55 54 53 52
62 130 135 115 124 149 188 178 159 118 72 124 138 139 146 152 151 149 150 153 154 153 152 150 151 154 156 156 156 154 152 153 155 154 154 156 157 156 156 156 156 155 156 155 155 153 152 149 147 145 144 143 143 141 139 139 141 141 138 134 127 124 127 131 130 121 111 100 91 84 79 76 74 71 68 64 61 60 61 59 58 56 55 53 52 51
178 196 181 141 146 200 177 167 155 115 115 146 150 147 152 157 154 151 151 153 154 154 154 153 152 153 156 159 160 159 156 155 156 156 155 154 155 156 157 157 157 156 157 158 157 157 155 153 150 147 145 144 146 146 146 146 147 146 144 139 131 124 120 121 124 121 114 107 100 89 79 75 72 70 68 66 62 60 60 59 58 56 54 52 51 50
Height
1463 1468 1467 1462 1462 1464 1467 1470 1473 1473 1474 1476 1477 1478 1479 1480 1479 1475 1471 1468 1468 1473 1476 1478 1480 1482 1485 1484 1484 1487 1490 1490 1490 1490 1491 1493 1495 1498 1499 1500 1501 1502 1504 1506 1508 1510 1512 1515 1516 1518 1520 1522 1523 1524 1526 1527 1528 1529 1530 1531 1532 1533 1534 1534 1535 1535 1535 1535 1535 1536 1536 1536 1536 1537 1537 1537 1537 1538 1538 1537 1537 1537 1537 1537 1536 1536
1462 1465 1461 1459 1461 1463 1466 1469 1471 1472 1473 1476 1478 1479 1480 1482 1479 1473 1470 1469 1468 1472 1477 1479 1481 1482 1484 1484 1483 1485 1489 1490 1489 1488 1490 1492 1495 1497 1499 1500 1501 1502 1504 1506 1509 1511 1513 1515 1517 1519 1521 1522 1524 1525 1526 1527 1528 1530 1531 1531 1533 1533 1534 1535 1535 1535 1535 1535 1535 1535 1536 1536 1536 1536 1536 1536 1536 1536 1537 1536 1536 1536 1536 1536 1536 1535
1461 1460 1458 1459 1461 1462 1466 1467 1469 1471 1472 1475 1478 1480 1482 1481 1479 1474 1470 1469 1469 1472 1477 1480 1482 1486 1486 1485 1484 1484 1484 1486 1487 1487 1489 1491 1494 1497 1499 1500 1500 1502 1504 1507 1509 1511 1513 1515 1517 1519 1521 1523 1525 1526 1527 1528 1529 1530 1531 1532 1533 1534 1534 1535 1535 1535 1535 1535 1535 1535 1535 1535 1535 1536 1535 1535 1535 1535 1535 1535 1535 1535 1535 1535 1534 1534
1461 1458 1456 1458 1459 1462 1466 1467 1468 1470 1472 1474 1477 1481 1482 1480 1480 1478 1472 1470 1470 1472 1477 1479 1485 1491 1490 1488 1487 1487 1486 1487 1488 1488 1491 1492 1493 1496 1499 1500 1501 1501 1503 1506 1508 1511 1513 1515 1517 1519 1521 1523 1525 1526 1527 1528 1530 1530 1531 1532 1533 1533 1533 1534 1534 1534 1535 1535 1535 1535 1535 1535 1535 1535 1534 1534 1534 1534 1534 1534 1534 1534 1534 1534 1533 1533
1456 1454 1453 1456 1458 1461 1465 1467 1468 1470 1473 1474 1475 1479 1480 1479 1479 1477 1473 1471 1472 1475 1476 1478 1490 1497 1494 1492 1492 1490 1490 1491 1491 1491 1494 1497 1497 1497 1500 1502 1503 1503 1504 1506 1508 1510 1513 1515 1517 1519 1521 1523 1525 1526 1528 1529 1530 1531 1531 1532 1532 1533 1533 1533 1534 1534 1534 1534 1535 1535 1534 1534 1534 1534 1534 1534 1534 1534 1534 1534 1534 1533 1533 1533 1533 1532
1455 1452 1452 1455 1458 1459 1462 1466 1466 1468 1473 1475 1474 1475 1477 1477 1478 1476 1474 1474 1478 1483 1477 1476 1494 1503 1497 1494 1495 1493 1493 1495 1496 1496 1497 1503 1505 1502 1502 1504 1505 1506 1506 1507 1508 1510 1513 1515 1517 1519 1520 1523 1524 1526 1528 1529 1530 1531 1532 1532 1532 1533 1533 1533 1534 1534 1534 1534 1534 1534 1534 1534 1534 1534 1534 1534 1534 1533 1533 1533 1533 1533 1532 1532 1532 1531
1452 1451 1451 1453 1456 1458 1462 1464 1464 1466 1473 1477 1473 1471 1474 1476 1477 1477 1476 1478 1484 1487 1477 1473 1488 1502 1501 1495 1494 1495 1494 1496 1498 1498 1498 1504 1509 1508 1506 1506 1505 1507 1507 1508 1509 1511 1513 1515 1516 1518 1520 1522 1524 1526 1528 1530 1531 1532 1532 1532 1533 1533 1533 1533 1533 1533 1534 1534 1534 1534 1534 1534 1534 1534 1534 1533 1533 1533 1532 1532 1532 1531 1531 1531 1531 1530
1447 1451 1453 1453 1455 1459 1461 1461 1461 1462 1472 1477 1469 1468 1474 1475 1477 1477 1476 1481 1484 1483 1479 1475 1480 1495 1501 1495 1490 1493 1495 1497 1497 1496 1498 1503 1508 1509 1508 1508 1507 1507 1507 1508 1509 1511 1513 1515 1516 1518 1520 1522 1524 1526 1528 1530 1531 1532 1532 1533 1533 1532 1533 1533 1533 1533 1534 1534 1534 1534 1534 1533 1533 1533 1533 1533 1533 1533 1532 1531 1531 1530 1530 1530 1529 1529
1444 1449 1452 1452 1455 1457 1455 1456 1458 1462 1469 1471 1465 1467 1471 1473 1475 1475 1476 1481 1482 1484 1486 1481 1479 1491 1499 1491 1488 1492 1494 1498 1497 1495 1498 1502 1504 1506 1506 1507 1508 1508 1508 1508 1509 1510 1513 1516 1517 1519 1520 1522 1525 1526 1528 1529 1530 1532 1532 1532 1533 1532 1533 1533 1533 1533 1534 1534 1534 1534 1534 1533 1533 1533 1533 1533 1533 1532 1532 1531 1530 1529 1528 1528 1528 1527
1444 1446 1448 1451 1454 1452 1451 1453 1456 1461 1466 1465 1463 1466 1469 1471 1473 1473 1477 1481 1484 1490 1489 1480 1477 1486 1495 1492 1488 1490 1491 1494 1495 1495 1498 1499 1501 1503 1503 1506 1508 1507 1508 1508 1509 1510 1513 1516 1518 1520 1521 1523 1525 1526 1528 1529 1531 1532 1532 1532 1533 1533 1533 1533 1533 1533 1533 1534 1533 1533 1533 1533 1533 1533 1533 1533 1532 1531 1530 1529 1528 1528 1527 1527 1526 1525
1443 1444 1446 1447 1449 1449 1451 1453 1455 1459 1462 1462 1463 1467 1470 1472 1472 1474 1478 1480 1488 1493 1482 1474 1474 1479 1490 1491 1486 1486 1485 1487 1491 1494 1497 1497 1499 1502 1502 1505 1507 1507 1507 1508 1510 1511 1513 1516 1518 1520 1521 1523 1525 1527 1528 1529 1530 1531 1532 1532 1532 1532 1532 1532 1532 1532 1532 1533 1532 1532 1532 1532 1532 1532 1532 1531 1530 1529 1528 1528 1527 1527 1527 1526 1524 1524
1445 1446 1444 1442 1444 1447 1449 1452 1454 1457 1458 1460 1463 1468 1474 1476 1475 1479 1482 1483 1493 1491 1473 1470 1474 1478 1486 1487 1483 1482 1482 1483 1488 1491 1493 1496 1498 1500 1502 1505 1506 1507 1507 1508 1510 1512 1514 1516 1518 1520 1522 1524 1526 1527 1529 1529 1530 1531 1531 1532 1532 1532 1532 1532 1532 1532 1532 1532 1531 1531 1531 1531 1531 1531 1530 1529 1528 1528 1527 1526 1526 1526 1526 1525 1524 1522
1447 1445 1443 1441 1442 1443 1447 1453 1456 1457 1457 1460 1464 1469 1479 1485 1485 1489 1489 1488 1489 1481 1471 1471 1474 1479 1485 1482 1478 1479 1480 1482 1486 1489 1491 1493 1497 1499 1502 1504 1506 1507 1507 1509 1512 1513 1515 1517 1518 1520 1522 1524 1526 1528 1529 1529 1529 1530 1531 1532 1532 1532 1532 1532 1532 1531 1531 1531 1530 1530 1529 1529 1529 1529 1529 1528 1527 1527 1526 1526 1526 1525 1525 1524 1522 1521
1452 1448 1443 1442 1441 1438 1443 1450 1455 1457 1456 1459 1462 1467 1478 1485 1491 1496 1491 1488 1484 1475 1473 1473 1473 1481 1486 1480 1476 1475 1477 1480 1485 1491 1494 1494 1497 1499 1501 1504 1505 1506 1506 1509 1513 1514 1516 1518 1518 1521 1523 1524 1526 1527 1528 1528 1529 1530 1531 1532 1533 1533 1533 1532 1532 1531 1530 1530 1529 1528 1528 1528 1528 1528 1528 1527 1527 1527 1526 1526 1525 1524 1523 1522 1521 1520
1454 1452 1441 1438 1439 1435 1438 1443 1446 1451 1455 1457 1458 1463 1472 1474 1479 1487 1485 1485 1484 1479 1479 1478 1477 1484 1485 1480 1476 1474 1478 1482 1485 1492 1494 1496 1499 1500 1502 1504 1504 1507 1507 1509 1513 1515 1516 1518 1519 1521 1523 1524 1525 1527 1528 1528 1529 1530 1531 1532 1532 1533 1533 1532 1531 1530 1529 1528 1527 1527 1527 1527 1527 1527 1527 1527 1526 1526 1526 1526 1525 1524 1523 1521 1520 1519
1448 1447 1433 1432 1436 1433 1436 1440 1441 1448 1455 1457 1457 1462 1467 1461 1462 1473 1477 1477 1477 1478 1484 1486 1485 1487 1484 1480 1478 1475 1480 1483 1486 1491 1494 1497 1500 1501 1503 1505 1505 1507 1508 1510 1513 1515 1517 1518 1519 1521 1523 1524 1525 1527 1528 1528 1529 1531 1532 1532 1532 1532 1532 1531 1530 1529 1528 1528 1527 1527 1527 1526 1526 1526 1526 1526 1526 1526 1525 1525 1524 1523 1522 1521 1519 1518
1445 1444 1432 1431 1435 1432 1435 1438 1438 1445 1452 1456 1458 1459 1455 1451 1455 1467 1476 1479 1475 1475 1488 1495 1492 1489 1486 1484 1481 1478 1481 1484 1486 1490 1494 1497 1499 1501 1504 1505 1506 1508 1510 1512 1514 1515 1518 1519 1520 1522 1523 1524 1525 1527 1528 1529 1530 1531 1532 1532 1532 1532 1531 1530 1530 1529 1528 1528 1527 1527 1527 1527 1527 1526 1526 1526 1526 1526 1525 1525 1524 1523 1521 1520 1519 1517
1439 1441 1433 1431 1434 1433 1434 1437 1437 1439 1444 1452 1456 1452 1449 1453 1459 1462 1471 1481 1478 1479 1494 1500 1493 1488 1487 1487 1485 1483 1485 1487 1487 1489 1493 1497 1499 1501 1504 1506 1507 1509 1510 1513 1514 1517 1519 1520 1521 1523 1524 1525 1526 1527 1529 1529 1530 1531 1532 1532 1532 1532 1531 1530 1530 1529 1528 1528 1528 1528 1527 1527 1527 1527 1527 1526 1526 1526 1525 1524 1523 1522 1520 1519 1518 1516
1434 1439 1434 1429 1432 1433 1432 1438 1441 1438 1438 1443 1445 1444 1449 1462 1467 1463 1469 1477 1478 1488 1501 1500 1493 1488 1485 1483 1484 1485 1489 1491 1491 1491 1493 1496 1499 1501 1505 1507 1508 1509 1511 1514 1516 1518 1520 1521 1523 1524 1525 1526 1527 1528 1529 1529 1530 1531 1532 1532 1532 1532 1531 1530 1530 1529 1529 1529 1529 1529 1528 1528 1528 1527 1527 1526 1526 1525 1524 1523 1522 1520 1519 1518 1516 1515
1431 1438 1436 1427 1428 1431 1432 1438 1443 1441 1438 1438 1441 1442 1446 1454 1458 1459 1465 1468 1473 1492 1502 1497 1493 1488 1480 1478 1479 1481 1485 1487 1488 1490 1493 1496 1499 1502 1505 1507 1509 1511 1514 1516 1518 1519 1521 1522 1524 1525 1526 1527 1528 1529 1530 1530 1531 1532 1533 1533 1532 1532 1531 1531 1531 1530 1530 1530 1529 1529 1528 1528 1528 1527 1527 1526 1525 1524 1523 1522 1521 1519 1518 1516 1515 1514
1431 1436 1436 1430 1428 1431 1433 1433 1433 1436 1439 1440 1444 1446 1444 1444 1447 1453 1460 1462 1466 1483 1493 1493 1493 1485 1473 1473 1476 1476 1479 1481 1483 1487 1492 1497 1500 1502 1505 1508 1511 1514 1516 1518 1518 1520 1521 1522 1525 1526 1527 1528 1529 1530 1530 1531 1532 1532 1533 1533 1533 1533 1532 1532 1532 1532 1531 1530 1530 1529 1528 1528 1528 1527 1527 1526 1525 1524 1522 1521 1520 1518 1517 1516 1514 1513
1431 1434 1435 1433 1432 1432 1429 1423 1424 1429 1434 1438 1442 1443 1442 1441 1445 1454 1463 1463 1464 1470 1478 1484 1487 1479 1471 1470 1472 1476 1479 1480 1484 1487 1492 1497 1500 1503 1506 1508 1512 1514 1516 1518 1519 1520 1521 1523 1525 1527 1528 1529 1530 1530 1531 1531 1532 1532 1533 1533 1533 1533 1533 1534 1533 1533 1532 1531 1530 1529 1528 1528 1528 1527 1527 1526 1525 1524 1522 1521 1519 1518 1516 1515 1513 1512
1427 1431 1434 1434 1432 1429 1424 1421 1423 1425 1428 1434 1436 1437 1439 1440 1442 1450 1457 1461 1464 1468 1470 1476 1479 1476 1473 1470 1470 1475 1479 1481 1486 1489 1493 1499 1501 1504 1507 1509 1512 1515 1516 1518 1519 1520 1522 1523 1525 1527 1529 1530 1530 1530 1531 1532 1532 1533 1534 1534 1534 1534 1535 1535 1534 1533 1532 1531 1530 1529 1529 1528 1527 1527 1526 1526 1525 1524 1522 1520 1519 1518 1516 1515 1513 1511
1425 1429 1433 1434 1430 1425 1421 1420 1421 1422 1426 1432 1433 1433 1436 1437 1436 1439 1444 1450 1459 1467 1468 1473 1480 1478 1474 1472 1472 1476 1480 1482 1487 1490 1494 1500 1503 1506 1509 1510 1512 1515 1516 1518 1519 1520 1522 1524 1525 1528 1530 1531 1530 1531 1532 1532 1533 1534 1534 1535 1535 1535 1535 1535 1534 1534 1532 1531 1530 1529 1529 1528 1527 1527 1526 1526 1525 1524 1522 1521 1520 1518 1517 1515 1513 1511
1425 1429 1433 1439 1439 1433 1429 1428 1427 1426 1426 1427 1429 1430 1430 1431 1433 1437 1441 1445 1453 1461 1460 1463 1475 1479 1474 1473 1475 1477 1482 1485 1488 1492 1495 1499 1504 1507 1510 1510 1512 1514 1515 1517 1519 1521 1522 1524 1526 1529 1531 1530 1531 1532 1532 1533 1534 1535 1535 1536 1536 1536 1536 1535 1534 1533 1532 1531 1530 1530 1529 1529 1528 1527 1527 1526 1525 1524 1523 1521 1520 1519 1517 1515 1514 1512
1423 1428 1431 1439 1445 1443 1439 1435 1431 1428 1425 1422 1422 1424 1424 1427 1430 1435 1441 1444 1449 1457 1457 1457 1469 1477 1475 1475 1478 1479 1483 1486 1489 1493 1495 1498 1503 1507 1508 1510 1512 1514 1514 1516 1519 1521 1523 1525 1527 1529 1530 1531 1532 1533 1533 1534 1535 1535 1536 1537 1538 1538 1537 1536 1535 1533 1532 1532 1531 1530 1530 1529 1529 1528 1527 1526 1525 1524 1523 1522 1520 1519 1517 1516 1514 1512
1420 1426 1425 1430 1436 1437 1433 1429 1424 1423 1422 1420 1420 1421 1423 1425 1426 1431 1437 1440 1444 1455 1461 1461 1465 1471 1474 1475 1477 1479 1482 1485 1489 1492 1495 1497 1501 1504 1507 1510 1512 1513 1514 1516 1519 1521 1523 1526 1528 1529 1530 1531 1533 1534 1534 1534 1535 1536 1538 1538 1538 1538 1537 1536 1535 1534 1533 1532 1532 1531 1531 1530 1529 1528 1527 1526 1525 1524 1523 1522 1520 1519 1518 1516 1514 1513
1417 1423 1424 1426 1429 1430 1429 1427 1424 1422 1419 1418 1419 1421 1422 1423 1425 1428 1432 1436 1442 1450 1459 1463 1462 1464 1469 1471 1473 1476 1479 1482 1487 1490 1493 1496 1499 1503 1507 1510 1512 1513 1514 1517 1520 1522 1524 1526 1528 1529 1530 1532 1534 1534 1534 1535 1536 1538 1539 1539 1539 1538 1537 1536 1535 1534 1533 1533 1533 1532 1532 1531 1530 1528 1527 1526 1525 1524 1523 1522 1520 1519 1518 1516 1514 1512
1413 1421 1424 1426 1427 1427 1428 1427 1426 1426 1424 1423 1424 1423 1422 1422 1421 1422 1427 1435 1437 1437 1445 1458 1460 1459 1463 1466 1467 1470 1473 1477 1483 1488 1492 1496 1499 1503 1507 1510 1512 1513 1515 1517 1520 1522 1525 1526 1527 1529 1531 1532 1533 1534 1534 1536 1537 1538 1539 1539 1539 1538 1537 1536 1535 1534 1534 1534 1533 1533 1532 1531 1530 1529 1528 1527 1526 1525 1523 1522 1520 1519 1518 1516 1514 1512
1410 1421 1424 1425 1427 1426 1426 1427 1427 1427 1428 1430 1433 1431 1428 1425 1419 1418 1427 1437 1437 1433 1438 1449 1456 1458 1460 1462 1466 1471 1475 1480 1486 1490 1494 1496 1499 1503 1506 1509 1512 1513 1515 1517 1520 1523 1525 1526 1527 1529 1531 1532 1533 1534 1535 1536 1537 1539 1539 1539 1539 1538 1537 1536 1536 1535 1535 1535 1534 1534 1532 1531 1530 1529 1528 1527 1526 1525 1523 1522 1521 1519 1518 1516 1514 1513
1409 1424 1426 1425 1430 1429 1426 1429 1431 1428 1427 1430 1436 1436 1433 1429 1424 1423 1430 1437 1440 1443 1446 1449 1457 1464 1465 1466 1470 1475 1478 1483 1487 1491 1494 1497 1499 1502 1506 1509 1511 1514 1516 1518 1520 1523 1524 1525 1527 1529 1530 1532 1534 1535 1535 1536 1538 1539 1539 1539 1539 1538 1538 1537 1536 1536 1536 1536 1535 1534 1533 1532 1531 1530 1529 1528 1527 1525 1524 1522 1521 1519 1518 1516 1515 1513
1409 1425 1429 1428 1434 1434 1429 1432 1436 1430 1425 1426 1433 1438 1438 1434 1431 1431 1433 1436 1439 1445 1454 1458 1460 1463 1465 1467 1472 1476 1479 1483 1487 1490 1494 1497 1500 1502 1505 1508 1511 1514 1517 1519 1521 1523 1524 1525 1527 1529 1531 1532 1534 1535 1536 1537 1538 1539 1540 1540 1539 1539 1539 1538 1538 1538 1538 1537 1536 1535 1533 1532 1531 1530 1529 1528 1527 1525 1524 1523 1521 1520 1519 1517 1515 1514
1410 1423 1430 1432 1438 1436 1431 1435 1438 1428 1421 1426 1435 1443 1444 1440 1437 1435 1435 1437 1437 1441 1449 1453 1452 1454 1459 1463 1469 1476 1479 1481 1485 1489 1492 1496 1500 1503 1505 1507 1511 1514 1516 1519 1521 1522 1523 1525 1528 1530 1532 1533 1534 1535 1536 1538 1539 1540 1540 1540 1540 1540 1540 1540 1540 1539 1539 1538 1536 1535 1534 1533 1532 1531 1530 1529 1528 1526 1525 1523 1522 1521 1519 1518 1516 1515
1410 1420 1430 1434 1435 1433 1432 1437 1436 1426 1425 1435 1442 1444 1443 1441 1440 1438 1438 1440 1441 1442 1443 1443 1444 1451 1458 1460 1464 1471 1476 1480 1484 1488 1491 1494 1498 1503 1506 1508 1511 1513 1516 1518 1520 1522 1524 1527 1529 1531 1533 1534 1535 1536 1537 1539 1540 1540 1540 1541 1541 1541 1541 1541 1541 1540 1539 1538 1537 1536 1535 1534 1533 1532 1531 1530 1529 1527 1526 1524 1523 1521 1520 1519 1518 1516
1412 1421 1432 1437 1435 1433 1435 1435 1431 1429 1436 1443 1444 1442 1441 1441 1441 1441 1443 1445 1445 1445 1445 1445 1449 1454 1458 1461 1466 1471 1476 1482 1487 1491 1494 1495 1497 1500 1505 1509 1511 1513 1515 1517 1519 1523 1526 1527 1529 1531 1533 1535 1536 1536 1538 1540 1540 1540 1541 1542 1542 1542 1542 1542 1542 1541 1540 1539 1538 1537 1536 1535 1534 1533 1532 1531 1530 1528 1526 1525 1524 1523 1521 1520 1519 1517
1414 1420 1427 1436 1438 1438 1439 1435 1431 1437 1445 1446 1443 1442 1440 1440 1439 1440 1444 1450 1450 1448 1448 1451 1455 1458 1461 1466 1470 1474 1479 1484 1488 1493 1496 1498 1500 1501 1503 1507 1510 1513 1515 1517 1520 1524 1527 1528 1529 1532 1534 1535 1536 1537 1539 1540 1540 1541 1542 1542 1543 1543 1544 1543 1543 1542 1541 1539 1539 1538 1537 1537 1536 1535 1534 1532 1531 1529 1527 1526 1525 1524 1523 1522 1520 1518
1412 1414 1419 1432 1441 1443 1444 1444 1443 1447 1449 1445 1442 1440 1437 1436 1436 1435 1442 1452 1453 1450 1449 1453 1457 1461 1465 1469 1472 1475 1480 1485 1492 1497 1498 1499 1501 1503 1504 1507 1510 1513 1516 1518 1521 1525 1528 1529 1531 1532 1534 1535 1537 1538 1540 1540 1541 1541 1542 1543 1544 1544 1545 1544 1543 1543 1542 1541 1540 1540 1539 1538 1537 1536 1535 1533 1531 1529 1528 1527 1526 1525 1524 1523 1521 1519
1408 1409 1411 1424 1440 1444 1443 1445 1448 1447 1444 1440 1437 1434 1431 1433 1434 1433 1440 1451 1454 1451 1450 1453 1457 1461 1464 1469 1474 1477 1479 1486 1494 1498 1498 1500 1502 1503 1506 1509 1512 1514 1516 1518 1522 1526 1528 1530 1532 1533 1535 1536 1537 1539 1540 1541 1542 1542 1543 1544 1545 1545 1546 1545 1544 1544 1543 1542 1542 1541 1541 1540 1538 1537 1536 1534 1532 1530 1529 1528 1527 1527 1526 1524 1522 1520
1409 1412 1411 1419 1436 1441 1434 1435 1442 1440 1433 1430 1430 1430 1431 1433 1432 1432 1439 1449 1453 1452 1452 1454 1457 1460 1462 1464 1468 1471 1475 1484 1492 1495 1496 1499 1501 1503 1507 1510 1513 1515 1517 1520 1523 1526 1529 1531 1532 1534 1535 1536 1538 1540 1541 1542 1543 1543 1544 1545 1546 1546 1546 1546 1545 1545 1544 1544 1544 1543 1542 1541 1540 1538 1537 1535 1533 1532 1531 1530 1529 1528 1527 1525 1523 1522
1412 1416 1417 1421 1431 1434 1430 1433 1440 1437 1429 1428 1429 1430 1432 1433 1433 1436 1440 1443 1447 1451 1452 1453 1455 1459 1461 1463 1465 1466 1467 1472 1480 1487 1493 1497 1501 1504 1507 1510 1513 1515 1518 1522 1525 1527 1529 1531 1533 1534 1536 1537 1539 1541 1542 1543 1544 1544 1545 1546 1546 1547 1547 1547 1547 1546 1546 1546 1545 1544 1543 1542 1541 1540 1538 1536 1535 1534 1532 1531 1530 1529 1528 1526 1525 1523
1418 1422 1423 1423 1428 1431 1429 1433 1438 1433 1428 1428 1429 1430 1433 1436 1439 1438 1433 1431 1438 1447 1451 1453 1454 1457 1460 1463 1466 1468 1468 1469 1474 1482 1490 1496 1500 1505 1508 1511 1514 1516 1519 1522 1525 1527 1530 1532 1533 1535 1537 1538 1539 1541 1543 1544 1544 1545 1546 1547 1547 1547 1547 1548 1548 1548 1548 1548 1547 1546 1545 1544 1543 1541 1540 1538 1537 1535 1534 1533 1532 1530 1529 1527 1526 1524
1419 1424 1425 1426 1429 1432 1431 1432 1436 1433 1427 1426 1429 1432 1435 1438 1438 1434 1427 1426 1433 1443 1450 1454 1456 1458 1461 1464 1467 1470 1472 1475 1480 1486 1491 1495 1500 1504 1508 1512 1515 1518 1521 1524 1526 1528 1530 1532 1534 1536 1537 1539 1541 1542 1543 1544 1544 1545 1546 1547 1547 1548 1548 1549 1549 1549 1549 1549 1548 1547 1546 1545 1544 1542 1541 1539 1538 1536 1535 1534 1533 1531 1530 1528 1526 1524
1416 1420 1426 1430 1431 1434 1435 1435 1434 1430 1425 1425 1429 1433 1435 1435 1431 1428 1429 1432 1435 1440 1448 1455 1457 1459 1462 1464 1468 1470 1473 1478 1484 1489 1493 1497 1500 1504 1508 1512 1515 1518 1521 1524 1526 1528 1530 1532 1534 1536 1538 1540 1541 1543 1544 1544 1545 1546 1547 1547 1548 1549 1550 1550 1550 1551 1550 1550 1549 1548 1547 1546 1545 1543 1542 1541 1540 1538 1537 1535 1534 1532 1530 1529 1527 1525
1418 1419 1425 1429 1429 1428 1429 1429 1427 1426 1426 1426 1427 1429 1430 1430 1428 1427 1429 1435 1438 1441 1447 1453 1457 1460 1461 1463 1467 1471 1475 1479 1485 1490 1494 1498 1502 1505 1509 1512 1516 1519 1521 1524 1526 1529 1531 1532 1534 1537 1539 1541 1542 1543 1545 1545 1545 1546 1547 1548 1549 1550 1551 1551 1552 1552 1551 1551 1550 1549 1548 1547 1546 1545 1543 1542 1542 1540 1538 1537 1535 1533 1531 1529 1528 1526
1418 1418 1418 1424 1429 1429 1426 1426 1427 1427 1428 1427 1426 1427 1427 1428 1430 1429 1428 1432 1437 1441 1445 1450 1455 1459 1461 1463 1467 1472 1476 1480 1485 1490 1494 1498 1502 1506 1509 1513 1516 1519 1522 1524 1527 1530 1532 1533 1535 1537 1539 1541 1543 1544 1545 1546 1546 1547 1548 1549 1550 1551 1552 1552 1552 1553 1552 1551 1551 1550 1549 1548 1547 1546 1545 1544 1543 1542 1540 1538 1536 1533 1532 1531 1529 1528
1419 1419 1418 1422 1430 1431 1428 1429 1430 1428 1428 1427 1427 1428 1428 1428 1430 1431 1431 1432 1436 1439 1444 1449 1453 1457 1460 1462 1467 1473 1477 1481 1485 1491 1495 1498 1502 1506 1510 1514 1517 1520 1522 1525 1527 1530 1532 1534 1536 1538 1539 1541 1543 1545 1546 1547 1547 1548 1548 1550 1551 1552 1552 1553 1553 1553 1553 1552 1551 1551 1550 1549 1548 1547 1547 1546 1545 1543 1541 1539 1537 1535 1534 1533 1531 1530
1420 1419 1420 1424 1427 1427 1428 1431 1432 1430 1430 1430 1428 1428 1429 1429 1431 1432 1434 1436 1438 1441 1445 1449 1452 1458 1462 1463 1466 1472 1478 1482 1486 1491 1496 1499 1502 1506 1509 1513 1516 1520 1522 1525 1528 1530 1533 1534 1536 1538 1539 1541 1543 1545 1546 1547 1548 1549 1550 1551 1552 1553 1553 1554 1554 1554 1553 1553 1552 1552 1551 1550 1550 1549 1549 1547 1546 1544 1542 1541 1539 1537 1536 1535 1534 1532
1419 1418 1421 1425 1429 1430 1431 1433 1434 1432 1431 1431 1430 1430 1430 1431 1432 1434 1436 1438 1441 1443 1447 1451 1454 1458 1463 1466 1468 1472 1478 1483 1486 1490 1495 1499 1503 1506 1510 1513 1516 1519 1523 1526 1528 1531 1533 1535 1537 1538 1540 1541 1543 1545 1546 1548 1549 1550 1551 1551 1553 1553 1554 1554 1555 1554 1554 1554 1553 1553 1552 1552 1551 1551 1550 1548 1547 1545 1544 1542 1541 1540 1539 1537 1536 1535
1418 1419 1422 1426 1432 1434 1434 1434 1433 1432 1433 1433 1433 1433 1433 1432 1434 1436 1438 1441 1443 1445 1449 1454 1457 1460 1464 1468 1471 1473 1478 1485 1488 1490 1494 1499 1502 1505 1509 1512 1516 1519 1522 1526 1529 1531 1534 1535 1537 1539 1540 1542 1543 1545 1547 1548 1549 1550 1551 1552 1553 1554 1554 1555 1555 1555 1555 1554 1554 1554 1554 1553 1553 1552 1550 1549 1548 1547 1545 1545 1543 1542 1541 1540 1538 1537
1419 1421 1423 1425 1430 1432 1431 1431 1430 1429 1431 1435 1435 1435 1436 1436 1435 1437 1439 1442 1444 1446 1449 1454 1460 1464 1467 1471 1473 1475 1479 1485 1490 1492 1495 1499 1502 1506 1509 1512 1515 1519 1523 1526 1529 1532 1534 1536 1538 1539 1540 1542 1544 1545 1547 1548 1550 1551 1552 1553 1554 1554 1555 1555 1555 1555 1555 1555 1555 1555 1555 1554 1553 1552 1551 1550 1549 1548 1547 1547 1546 1545 1544 1542 1541 1539
1420 1421 1421 1421 1423 1424 1425 1427 1429 1428 1431 1435 1436 1436 1437 1438 1438 1439 1441 1443 1446 1448 1451 1454 1459 1464 1469 1473 1476 1478 1480 1484 1490 1494 1496 1500 1504 1508 1511 1513 1516 1519 1523 1526 1529 1531 1534 1536 1538 1539 1540 1542 1544 1546 1547 1549 1550 1551 1552 1553 1554 1555 1555 1555 1555 1555 1555 1556 1556 1556 1555 1555 1554 1553 1552 1551 1550 1549 1549 1548 1548 1547 1546 1545 1543 1541